Location: Burtsch�tz
(51.0528°N, 12.1764°E)
Time: 07:14:46
(UTC+00:00)

ATLAS 2AS CENTAUR R/B - Pass Details

Date: 29 October 2020
Orbit: 939 x 1273 km, 63.7° (Epoch: 23 November)

Event Time Altitude Azimuth Distance (km) Brightness Sun altitude
Rises 20:04:54 0° 314° (NW) 4,125 6.6 -39.5°
Reaches altitude 10° 20:08:04 10° 305° (NW) 3,110 5.8 -39.9°
Enters shadow 20:13:44 30° 256° (WSW) 1,895 4.2 -40.6°
